Flag Weather past 2 weeks in Bursa, Turkey

Now
45 °F

Sprinkles. Overcast.


Feels Like: 43 °F
Forecast: 37 / 48 °F
Wind: 3 mph from Southeast

Location: Bursa

Current Time: Nov 26, 2014 at 3:34:36 AM

Latest Report: Nov 26, 2014 at 2:00 AM


Visibility: 4 mi

Pressure: 30.16 "Hg

Humidity: 95%

Dew point: 43 °F

Location of BursaLocation

Historic Weather in Bursa — Graph

°F

Bursa temperature yesterday

Maximum temperature yesterday: 46 °F (at 3:00 AM)
Minimum temperature yesterday: 44 °F (at 9:00 AM)
Average temperature yesterday: 45 °F

Past Weeks' High & Low Weather Summary

 TemperatureHumidityPressure
High70 °F (Nov 19, 3:00 PM)100% (Nov 11, 6:00 AM)30.35 "Hg (Nov 11, 6:00 AM)
Low40 °F (Nov 24, 5:00 AM)46% (Nov 20, 1:00 AM)29.89 "Hg (Nov 14, 5:00 PM)
Average54 °F88%30.11 "Hg
* Reported Nov 11 2:00 AM — Nov 26 2:00 AM, Bursa, Weather by CustomWeather, © 2014

Note: Actual official high and low records may vary slightly from our data, if they occured in-between our weather recording intervals... More about our weather records

Advertising

Bursa weather history for previous 24 hours

 ConditionsComfort  
Time TempWeatherWind HumidityBarometerVisibility
2:00 AM
Nov 26
45 °FSprinkles. Overcast.3 mph95%30.16 "Hg4 mi
1:00 AM45 °FSprinkles. Overcast.3 mph95%30.16 "Hg4 mi
12:00 AM45 °FSprinkles. Overcast.8 mph93%30.17 "Hg4 mi
11:00 PM
Nov 25
45 °FSprinkles. Overcast.1 mph99%30.17 "Hg4 mi
10:00 PM45 °FSprinkles. Overcast.1 mph99%30.16 "Hg4 mi
9:00 PM45 °FSprinkles. Overcast.1 mph99%30.16 "Hg5 mi
8:00 PM45 °FSprinkles. Overcast.2 mph99%30.16 "Hg5 mi
7:00 PM45 °FSprinkles. Overcast.1 mph98%30.17 "Hg5 mi
6:00 PM45 °FSprinkles. Overcast.2 mph96%30.18 "Hg5 mi
5:00 PM45 °FSprinkles. Overcast.1 mph97%30.18 "Hg4 mi
4:00 PM45 °FSprinkles. Overcast.5 mph97%30.18 "Hg4 mi
3:00 PM45 °FSprinkles. Overcast.1 mph97%30.17 "Hg4 mi
2:00 PM45 °FSprinkles. Overcast.2 mph95%30.18 "Hg4 mi
1:00 PM45 °FSprinkles. Overcast.5 mph93%30.19 "Hg4 mi
12:00 PM46 °FSprinkles. Overcast.1 mph95%30.20 "Hg4 mi
11:00 AM44 °FRain showers. Overcast.1 mph97%30.21 "Hg3 mi
10:00 AM44 °FSprinkles. Overcast.1 mph92%30.21 "Hg4 mi
9:00 AM44 °FSprinkles. Overcast.1 mph93%30.20 "Hg4 mi
8:00 AM44 °FRain showers. Overcast.1 mph95%30.20 "Hg3 mi
7:00 AM44 °FSprinkles. Overcast.3 mph91%30.18 "Hg5 mi
6:00 AM45 °FPassing clouds.5 mph82%30.18 "Hg6 mi
5:00 AM44 °FPassing clouds.3 mph83%30.17 "Hg6 mi
4:00 AM45 °FPassing clouds.2 mph82%30.17 "Hg6 mi
3:00 AM46 °FSprinkles. Overcast.3 mph86%30.17 "Hg5 mi
Weather by CustomWeather, © 2014

See weather overviewHow to use our weather pages